Total_Precipitation_Accumulation
0.01 0.01 0.02 0.03 0.04 0.05 0.09 0.17 0.25 0.27 0.23 0.33 0.51 0.76 0.92 0.89 0.94 1.07 1.19 1.38 1.40 1.45 1.73 2.21 2.86 3.54 4.35 5.46 6.13 6.28 6.04 5.35 4.85 4.45 4.21 3.95 3.70 3.42 2.94 2.55 2.31 2.21 2.09 2.04
0.01 0.03 0.03 0.03 0.03 0.04 0.07 0.14 0.23 0.22 0.19 0.22 0.48 0.87 1.00 1.01 1.07 1.04 1.10 1.18 1.11 1.26 1.61 2.21 2.98 3.79 4.49 5.03 5.38 5.48 5.11 4.37 3.88 3.65 3.60 3.34 3.15 2.83 2.62 2.38 2.36 2.05 1.98 2.02
0.03 0.04 0.02 0.02 0.03 0.05 0.09 0.12 0.18 0.22 0.20 0.24 0.48 1.06 1.26 1.14 1.11 1.08 0.97 0.95 1.05 1.28 1.81 2.56 3.37 4.15 4.48 4.51 4.29 4.00 3.82 3.43 3.32 3.29 3.10 2.89 2.87 2.62 2.46 2.24 2.16 1.86 1.68 1.69
0.02 0.04 0.03 0.03 0.05 0.06 0.10 0.09 0.08 0.10 0.17 0.41 0.57 1.14 1.32 1.29 1.22 1.06 1.04 1.05 1.15 1.43 1.95 2.64 3.18 3.43 3.58 3.51 3.23 3.04 2.98 2.90 2.86 2.78 2.69 2.41 2.29 2.28 2.14 2.05 2.05 1.93 1.71 1.68
0.03 0.04 0.05 0.05 0.05 0.06 0.07 0.06 0.06 0.11 0.23 0.44 0.60 0.96 1.32 1.30 1.37 0.95 0.81 0.90 1.00 1.24 1.52 1.72 1.93 2.09 2.23 2.26 2.43 2.50 2.63 2.76 2.67 2.61 2.60 2.55 2.27 2.24 2.20 2.19 2.28 2.14 1.91 1.70
0.04 0.03 0.04 0.04 0.04 0.05 0.05 0.08 0.14 0.26 0.44 0.81 0.82 1.00 1.35 1.34 1.23 0.83 0.63 0.65 0.80 0.91 0.97 1.06 1.15 1.28 1.51 1.57 1.79 2.00 2.13 2.27 2.45 2.49 2.33 2.27 2.23 2.29 2.35 2.29 2.10 1.89 1.75 1.64
0.10 0.08 0.07 0.07 0.07 0.07 0.07 0.13 0.39 0.75 1.11 1.16 0.73 0.84 1.25 1.18 0.86 0.59 0.51 0.48 0.49 0.67 0.81 0.94 1.05 1.15 1.37 1.33 1.41 1.63 1.70 1.71 1.87 1.92 1.90 1.97 2.13 2.19 2.08 1.98 1.89 1.72 1.46 1.45
0.15 0.15 0.10 0.08 0.09 0.08 0.08 0.13 0.28 0.49 0.59 0.77 0.82 1.30 1.48 0.88 0.60 0.46 0.44 0.43 0.43 0.59 0.72 0.81 0.81 0.89 1.02 1.03 1.17 1.27 1.36 1.43 1.50 1.61 1.74 1.72 1.87 1.88 1.79 1.89 1.76 1.62 1.40 1.29
0.07 0.09 0.08 0.08 0.10 0.10 0.09 0.09 0.13 0.19 0.27 0.60 1.00 1.36 1.32 0.80 0.61 0.45 0.43 0.45 0.47 0.45 0.58 0.64 0.58 0.59 0.73 0.87 0.99 1.08 1.15 1.28 1.31 1.47 1.55 1.53 1.63 1.73 1.79 1.81 1.69 1.50 1.52 1.35
0.05 0.04 0.07 0.07 0.08 0.10 0.10 0.12 0.14 0.16 0.26 0.53 0.93 1.42 1.68 1.22 0.69 0.53 0.51 0.51 0.55 0.47 0.50 0.54 0.54 0.50 0.59 0.76 1.02 1.08 1.09 1.23 1.26 1.36 1.38 1.25 1.44 1.58 1.75 1.71 1.61 1.55 1.58 1.52
0.05 0.04 0.07 0.08 0.08 0.10 0.11 0.12 0.14 0.16 0.19 0.33 0.77 1.10 0.95 0.94 0.71 0.71 0.67 0.59 0.58 0.53 0.55 0.53 0.52 0.52 0.50 0.63 0.86 0.92 1.07 1.19 1.24 1.31 1.41 1.48 1.50 1.45 1.58 1.63 1.60 1.64 1.68 1.65
0.05 0.05 0.07 0.10 0.11 0.13 0.14 0.15 0.15 0.17 0.19 0.23 0.37 0.61 0.61 0.76 0.72 0.74 0.80 0.72 0.64 0.48 0.45 0.48 0.52 0.57 0.55 0.57 0.70 0.85 1.03 1.19 1.24 1.31 1.45 1.55 1.72 1.68 1.62 1.61 1.66 1.73 1.85 1.93
0.04 0.06 0.10 0.20 0.24 0.21 0.14 0.13 0.14 0.15 0.14 0.16 0.36 0.58 0.57 0.62 0.66 0.63 0.76 0.76 0.65 0.60 0.56 0.56 0.62 0.66 0.72 0.72 0.74 0.85 1.03 1.23 1.36 1.44 1.53 1.69 1.79 1.69 1.61 1.72 1.81 1.86 2.01 2.17
0.04 0.04 0.08 0.20 0.28 0.31 0.23 0.15 0.15 0.13 0.14 0.15 0.25 0.51 0.58 0.64 0.62 0.70 0.77 0.78 0.78 0.74 0.67 0.63 0.61 0.66 0.78 0.98 0.98 1.02 1.28 1.33 1.36 1.57 1.76 1.86 1.89 1.82 1.76 1.86 1.97 1.99 2.05 2.20
0.04 0.04 0.05 0.06 0.11 0.18 0.21 0.19 0.15 0.11 0.09 0.13 0.23 0.41 0.54 0.65 0.72 0.76 0.77 0.71 0.68 0.69 0.68 0.61 0.61 0.67 0.77 0.93 1.04 1.15 1.22 1.41 1.49 1.71 1.90 1.97 2.07 2.07 2.08 2.18 2.19 2.12 2.14 2.15
0.08 0.06 0.05 0.05 0.08 0.13 0.16 0.18 0.13 0.10 0.09 0.10 0.21 0.46 0.55 0.61 0.66 0.76 0.73 0.72 0.71 0.68 0.70 0.75 0.78 0.79 0.81 0.87 0.98 1.08 1.16 1.37 1.61 1.90 2.20 2.24 2.29 2.28 2.37 2.53 2.59 2.48 2.45 2.56
0.13 0.11 0.09 0.08 0.11 0.13 0.18 0.18 0.16 0.17 0.16 0.19 0.29 0.45 0.55 0.62 0.69 0.89 0.87 0.81 0.81 0.82 0.85 0.91 1.02 0.99 0.95 0.97 1.00 1.11 1.23 1.43 1.73 2.02 2.27 2.43 2.49 2.54 2.63 2.73 2.74 2.70 2.77 2.94
0.20 0.20 0.17 0.13 0.18 0.25 0.22 0.22 0.22 0.26 0.28 0.32 0.42 0.46 0.61 0.83 0.92 1.08 1.12 0.98 0.95 0.88 0.85 0.93 1.09 1.14 1.11 1.12 1.17 1.31 1.51 1.77 2.06 2.26 2.40 2.51 2.55 2.60 2.66 2.73 2.63 2.67 2.81 2.85
0.22 0.27 0.28 0.24 0.27 0.28 0.32 0.36 0.37 0.42 0.55 0.55 0.64 0.73 0.85 0.96 0.95 1.02 0.95 0.85 0.86 0.87 0.93 1.01 1.13 1.25 1.35 1.39 1.46 1.53 1.69 1.91 2.16 2.35 2.36 2.34 2.46 2.58 2.64 2.67 2.69 2.71 2.72 2.58
0.33 0.34 0.43 0.38 0.42 0.46 0.50 0.52 0.48 0.56 1.03 1.07 1.06 1.00 0.97 1.01 1.21 1.19 0.96 0.87 0.90 0.98 1.05 1.14 1.16 1.21 1.35 1.46 1.49 1.60 1.80 2.02 2.23 2.39 2.41 2.39 2.52 2.64 2.68 2.75 2.78 2.69 2.56 2.49
0.54 0.57 0.55 0.55 0.61 0.59 0.56 0.52 0.54 0.93 1.26 1.20 1.17 1.19 1.11 1.19 1.26 1.23 1.11 1.09 1.06 1.08 1.17 1.18 1.21 1.24 1.29 1.41 1.52 1.66 1.79 1.93 2.08 2.24 2.38 2.54 2.73 2.82 2.82 2.82 2.72 2.61 2.49 2.50
0.68 0.73 0.74 0.74 0.95 1.03 0.72 0.62 0.89 1.20 1.05 1.19 1.31 1.30 1.29 1.25 1.18 1.20 1.22 1.22 1.18 1.12 1.20 1.25 1.28 1.40 1.47 1.54 1.59 1.69 1.70 1.79 1.98 2.05 2.19 2.29 2.45 2.57 2.59 2.64 2.58 2.59 2.52 2.41
0.89 0.88 0.93 1.03 1.17 1.00 0.84 0.88 1.01 1.07 1.15 1.22 1.36 1.44 1.40 1.43 1.35 1.22 1.26 1.22 1.37 1.46 1.44 1.43 1.36 1.40 1.47 1.56 1.65 1.75 1.76 1.72 1.78 1.89 2.05 2.20 2.29 2.45 2.55 2.56 2.51 2.41 2.32 2.16
1.09 0.89 1.00 1.27 1.33 1.18 1.10 1.06 1.01 1.04 1.16 1.23 1.37 1.46 1.54 1.51 1.37 1.26 1.21 1.14 1.13 1.22 1.25 1.36 1.34 1.38 1.56 1.50 1.54 1.66 1.73 1.72 1.78 1.87 1.92 2.04 2.13 2.23 2.45 2.49 2.33 2.15 1.98 1.89
1.23 1.25 1.27 1.48 1.53 1.31 1.23 1.19 1.24 1.24 1.21 1.21 1.30 1.37 1.43 1.38 1.31 1.29 1.22 1.12 1.11 1.11 1.11 1.14 1.17 1.22 1.31 1.32 1.35 1.45 1.55 1.61 1.62 1.63 1.62 1.65 1.83 1.99 2.14 2.18 2.07 1.88 1.76 1.84
1.17 1.41 1.58 1.69 1.49 1.51 1.55 1.44 1.42 1.51 1.48 1.42 1.46 1.56 1.54 1.37 1.28 1.23 1.13 1.06 1.03 0.98 0.97 1.03 1.06 1.07 1.13 1.18 1.27 1.37 1.55 1.69 1.72 1.67 1.60 1.53 1.50 1.60 1.81 2.01 2.07 1.92 1.70 1.73